TimeCST,TemperatureF,Dew PointF,Humidity,Sea Level PressureIn,VisibilityMPH,Wind Direction,Wind SpeedMPH,Gust SpeedMPH,PrecipitationIn,Events,Conditions,WindDirDegrees,DateUTC
12:53 AM,66.9,60.1,79,30.02,10.0,North,9.2,-,N/A,,Clear,350,2012-11-06 06:53:00
1:53 AM,64.9,59.0,81,30.03,10.0,North,8.1,-,N/A,,Clear,360,2012-11-06 07:53:00
2:53 AM,63.0,57.0,81,30.04,10.0,North,5.8,-,N/A,,Clear,10,2012-11-06 08:53:00
3:53 AM,62.1,55.9,80,30.06,10.0,North,9.2,-,N/A,,Mostly Cloudy,360,2012-11-06 09:53:00
4:53 AM,61.0,55.0,81,30.08,10.0,North,5.8,-,N/A,,Partly Cloudy,10,2012-11-06 10:53:00
5:53 AM,63.0,53.1,70,30.10,10.0,NNE,3.5,-,N/A,,Overcast,30,2012-11-06 11:53:00
6:53 AM,60.1,53.1,78,30.11,10.0,NNE,5.8,-,N/A,,Overcast,30,2012-11-06 12:53:00
7:53 AM,64.9,52.0,63,30.13,10.0,NE,4.6,-,N/A,,Clear,50,2012-11-06 13:53:00
8:53 AM,68.0,48.0,49,30.15,10.0,NNE,5.8,-,N/A,,Scattered Clouds,30,2012-11-06 14:53:00
9:53 AM,71.1,42.1,35,30.16,10.0,NE,9.2,-,N/A,,Clear,40,2012-11-06 15:53:00
10:53 AM,73.0,42.1,33,30.16,10.0,North,9.2,-,N/A,,Clear,10,2012-11-06 16:53:00
11:53 AM,75.9,39.9,27,30.14,10.0,North,9.2,-,N/A,,Clear,360,2012-11-06 17:53:00
12:53 PM,78.1,39.9,25,30.11,10.0,North,12.7,-,N/A,,Clear,350,2012-11-06 18:53:00
1:53 PM,78.1,39.9,25,30.08,10.0,NNE,12.7,-,N/A,,Clear,30,2012-11-06 19:53:00
2:53 PM,80.1,43.0,27,30.07,10.0,NNW,6.9,-,N/A,,Clear,340,2012-11-06 20:53:00
3:53 PM,79.0,43.0,28,30.07,10.0,NNW,8.1,-,N/A,,Clear,340,2012-11-06 21:53:00
4:53 PM,75.9,44.1,32,30.07,10.0,NNW,5.8,-,N/A,,Clear,340,2012-11-06 22:53:00
5:53 PM,70.0,45.0,41,30.08,10.0,NNW,3.5,-,N/A,,Clear,340,2012-11-06 23:53:00
6:53 PM,72.0,45.0,38,30.09,10.0,Calm,Calm,-,N/A,,Clear,0,2012-11-07 00:53:00
7:53 PM,64.9,46.9,52,30.11,10.0,Calm,Calm,-,N/A,,Clear,0,2012-11-07 01:53:00
8:53 PM,61.0,46.0,58,30.12,10.0,NE,3.5,-,N/A,,Clear,40,2012-11-07 02:53:00
9:53 PM,61.0,46.9,60,30.12,10.0,ENE,3.5,-,N/A,,Clear,60,2012-11-07 03:53:00
10:53 PM,57.0,46.0,67,30.12,10.0,NE,3.5,-,N/A,,Clear,40,2012-11-07 04:53:00
11:53 PM,57.9,46.9,67,30.12,10.0,Calm,Calm,-,N/A,,Clear,0,2012-11-07 05:53:00